{"data":{"norad_id":40930,"intl_designator":"2015-052A","name":"ASTROSAT","alt_names":[],"object_type":"PAYLOAD","status":"ACTIVE","operator":null,"country":"IND","launch_date":"2015-09-28","launch_site_code":"SRILR","launch_vehicle":null,"mission":null,"orbit_class":"UNKNOWN","rcs_meters":4.8771,"size_class":null,"mass_kg":null,"dimensions":null,"purposes":["science"],"wikipedia_slug":null,"has_3d_model":false,"image_url":null,"decayed_at":null,"tle_current":{"epoch":"2026-05-25T03:37:18.236064Z","epoch_age_seconds":72092,"freshness":"FRESH","line1":"1 40930U 15052A   26145.15090551  .00001511  00000+0  10243-3 0  9993","line2":"2 40930   5.9989 321.1626 0007589  63.2978 296.7926 14.82459854576406","mean_motion":14.82459854,"eccentricity":0.0007589,"inclination_deg":5.9989,"raan_deg":321.1626,"arg_perigee_deg":63.2978,"mean_anomaly_deg":296.7926,"bstar":0.00010243,"rev_number":57640,"period_min":97.135851342926,"perigee_km":616.25823169723,"apogee_km":626.8823874517,"semimajor_km":6999.7073095745,"source":"CELESTRAK","updated_at":"2026-05-25T13:38:24.644931Z"}}}